Regional Weather Roundup
Issued by NWS

Home | Current Version | Previous Version | Text Only | Print | Product List | Glossary On
Versions: 1 2 3 4 5 6 7 8 9 10 11 12 13 14 15 16 17 18 19 20 21 22 23 24 25 26 27 28 29 30 31 32 33 34 35 36 37 38 39 40 41 42 43 44 45 46 47 48 49 50
000
ASUS43 KTOP 061208
RWRKS

WEATHER ROUNDUP FOR KANSAS
NATIONAL WEATHER SERVICE GOODLAND KS
700 AM CDT WED MAY 06 2015

NOTE:  "FAIR" INDICATES FEW OR NO CLOUDS BELOW 12,000 FEET WITH NO
SIGNIFICANT WEATHER AND/OR OBSTRUCTIONS TO VISIBILITY.

KSZ001>006-013>018-027>032-041>047-061300-
NORTHWEST KANSAS

CITY           SKY/WX    TMP DP  RH WIND       PRES   REMARKS
GOODLAND       CLOUDY    51  50  96 S13       29.71F
6HR MIN TEMP:  51; 6HR MAX TEMP:  52;

HAYS           CLOUDY    61  54  77 S13       29.75R
HILL CITY      MOCLDY    61  58  90 S12       29.73S
6HR MIN TEMP:  61; 6HR MAX TEMP:  62;

RUSSELL        CLOUDY    60  59  96 S20       29.75R
6HR MIN TEMP:  60; 6HR MAX TEMP:  62; 6HR PCP:  0.02;

$$

KSZ061>065-074>080-084>089-061300-
SOUTHWEST KANSAS

CITY           SKY/WX    TMP DP  RH WIND       PRES   REMARKS
DODGE CITY     CLOUDY    56  52  86 S20       29.76S
6HR MIN TEMP:  54; 6HR MAX TEMP:  60;

ELKHART          N/A     49  43  80 S8          N/A
GARDEN CITY    PTCLDY    49  49 100 SE14      29.71S
6HR MIN TEMP:  49; 6HR MAX TEMP:  52;

GREAT BEND     MOCLDY    57  54  88 S17       29.77R
LIBERAL        CLEAR     54  48  82 S13       29.73F
PRATT          CLOUDY    55  54  94 S12       29.81R
$$

KSZ066>073-081>083-090>101-061300-
SOUTHEAST KANSAS

CITY           SKY/WX    TMP DP  RH WIND       PRES   REMARKS
CHANUTE        CLOUDY    63  60  90 S17       29.93S
6HR MIN TEMP:  63; 6HR MAX TEMP:  68; 6HR PCP:  0.12;

COFFEYVILLE    LGT RAIN  62  60  93 SE14      29.94F
6HR MIN TEMP:  62; 6HR MAX TEMP:  67; 6HR PCP:  0.23;

HUTCHINSON     CLOUDY    60  56  86 S16G24    29.82R
6HR MIN TEMP:  60; 6HR MAX TEMP:  64; 6HR PCP:  0.16;

MEDICINE LODGE   N/A     58  57  97 SE9       29.81R
NEWTON         CLOUDY    57  54  88 S13G18    29.86R
PARSONS        LGT RAIN  63  61  93 S7G16     29.95S
6HR MIN TEMP:  62; 6HR MAX TEMP:  68; 6HR PCP:  0.08;

WICHITA INTL   TSTM      60  57  89 S17G25    29.85R
6HR MIN TEMP:  60; 6HR MAX TEMP:  64; 6HR PCP:  0.71;

WICHITA JABRA  LGT RAIN  59  57  93 S14G22      N/A
6HR MIN TEMP:  59; 6HR MAX TEMP:  62; 6HR PCP:  1.21;

WICHITA MCCONL TSTM      59  58  95 SE16      29.87R
WINFIELD       CLOUDY    59  58  96 SE15      29.89R
6HR MIN TEMP:  59; 6HR MAX TEMP:  65; 6HR PCP:  0.64;

$$

KSZ007>012-019>026-033>040-048>060-102>105-061300-
NORTHEAST KANSAS

CITY           SKY/WX    TMP DP  RH WIND       PRES   REMARKS
CONCORDIA      CLOUDY    60  58  92 S9        29.79S
6HR MIN TEMP:  60; 6HR MAX TEMP:  64; 6HR PCP:  0.09;

EMPORIA        CLOUDY    61  59  93 S18G24    29.87R
6HR MIN TEMP:  60; 6HR MAX TEMP:  64; 6HR PCP:  0.41;

LAWRENCE       LGT RAIN  65  58  78 S20G29    29.90F
6HR MIN TEMP:  64; 6HR MAX TEMP:  66; 6HR PCP:  0.01;

MANHATTAN      CLOUDY    63  61  93 S13       29.83R
6HR MIN TEMP:  62; 6HR MAX TEMP:  66; 6HR PCP:  0.42;

MARYSVILLE     LGT RAIN  63  59  88 S13       29.82R
OLATHE IND     CLOUDY    65  58  78 S22G31    29.93F
6HR MIN TEMP:  65; 6HR MAX TEMP:  67; 6HR PCP: TRACE;

OLATHE EXE     CLOUDY    66  58  75 S16G22    29.93S
6HR MIN TEMP:  66; 6HR MAX TEMP:  68; 6HR PCP:  0.01;

SALINA         CLOUDY    62  59  90 S14       29.81R
6HR MIN TEMP:  61; 6HR MAX TEMP:  65; 6HR PCP:  0.24;

TOPEKA BILLARD CLOUDY    65  60  84 SE16G25   29.87R
6HR MIN TEMP:  63; 6HR MAX TEMP:  65; 6HR PCP:  0.11;

TOPEKA FORBES  CLOUDY    65  60  84 S18G26    29.86R
6HR MIN TEMP:  64; 6HR MAX TEMP:  66; 6HR PCP:  0.18;

$$


USA.gov is the U.S. government's official web portal to all federal, state and local government web resources and services.